View from above orbital plane
|
View from above satellite
|
Ground track
|
The orbit data is extracted from the following two-line orbital elements,
1 07369U 74054A 21023.10453003 .00000111 00000-0 00000-0 0 9992
2 07369 125.1559 33.4706 0071327 316.8976 68.0101 3.07215099522065
Epoch (UTC): | 23 January 2021 02:30:31 |
Eccentricity: | 0.0071327 |
inclination: | 125.1559° |
perigee height: | 13467 km |
apogee height: | 13752 km |
right ascension of ascending node: | 33.4706° |
argument of perigee: | 316.8976° |
revolutions per day: | 3.07215099 |
mean anomaly at epoch: | 68.0101° |
orbit number at epoch: | 52206 |
The dashed part of the orbit path shows where the satellite is in the earth's shadow,
|
|